Regional Weather Roundup
Issued by NWS Little Rock, AR

Home | Current Version | Previous Version | Graphics & Text | Print | Product List | Glossary On
Versions: 1 2 3 4 5 6 7 8 9 10 11 12 13 14 15 16 17 18 19 20 21 22 23 24 25 26 27 28 29 30 31 32 33 34 35 36 37 38 39 40 41 42 43 44 45 46 47 48 49 50
000
ASUS44 KLZK 270014
RWRLZK

WEATHER ROUNDUP FOR ARKANSAS
NATIONAL WEATHER SERVICE LITTLE ROCK AR
700 PM CDT MON SEP 26 2016

NOTE: "FAIR" INDICATES FEW OR NO CLOUDS BELOW 12,000 FEET WITH NO
SIGNIFICANT WEATHER AND/OR OBSTRUCTIONS TO VISIBILITY.

ARZ001-003-010-029-270100-
NORTHWEST ARKANSAS

CITY           SKY/WX    TMP DP  RH WIND       PRES   REMARKS
FAYETTEVILLE   CLEAR     62  51  67 NW3       30.15S
6HR MIN TEMP:  62; 6HR MAX TEMP:  73;

FORT SMITH     CLOUDY    74  45  35 NE8       30.10S
6HR MIN TEMP:  74; 6HR MAX TEMP:  81;

HARRISON       CLEAR     64  46  52 N3        30.15R
6HR MIN TEMP:  64; 6HR MAX TEMP:  75;

BENTONVILLE    CLEAR     64  43  45 N6        30.16S
6HR MIN TEMP:  64; 6HR MAX TEMP:  72;

ROGERS         CLEAR     64  47  53 N3        30.17S
6HR MIN TEMP:  64; 6HR MAX TEMP:  71;

SILOAM SPGS    CLEAR     64  41  42 N6        30.16S
6HR MIN TEMP:  64; 6HR MAX TEMP:  73;

HIGHFILL       CLEAR     66  45  46 N7        30.16S
6HR MIN TEMP:  66; 6HR MAX TEMP:  75;

SPRINGDALE     CLEAR     68  43  40 N9        30.17S
$$

ARZ004-005-016-270100-
NORTH CENTRAL ARKANSAS

CITY           SKY/WX    TMP DP  RH WIND       PRES   REMARKS
BATESVILLE     PTCLDY    66  55  68 CALM      30.10R
6HR MIN TEMP:  66; 6HR MAX TEMP:  75;

FLIPPIN        CLEAR     68  46  45 N5        30.11R
6HR MIN TEMP:  68; 6HR MAX TEMP:  77;

MTN HOME       CLEAR     63  48  58 CALM      30.13R
6HR MIN TEMP:  63; 6HR MAX TEMP:  76;

$$

ARZ040-041-270100-
WEST CENTRAL ARKANSAS

CITY           SKY/WX    TMP DP  RH WIND       PRES   REMARKS
MENA           PTCLDY   N/A N/A N/A CALM      30.11F
MOUNT IDA      MOCLDY    67  60  78 CALM      30.09S
6HR MIN TEMP:  67; 6HR MAX TEMP:  71;

$$

ARZ009-017-025-026-028-270100-
NORTHEAST ARKANSAS

CITY           SKY/WX    TMP DP  RH WIND       PRES   REMARKS
CORNING          N/A     70  55  60 N3        30.10R
JONESBORO      PTCLDY    66  57  72 NE3       30.08S
6HR MIN TEMP:  66; 6HR MAX TEMP:  75; 6HR PCP: TRACE;

WALNUT RIDGE   CLEAR     70  50  49 N5        30.08S
6HR MIN TEMP:  68; 6HR MAX TEMP:  75;

BLYTHEVILLE    CLEAR     66  56  70 NE3       30.08S
6HR MIN TEMP:  66; 6HR MAX TEMP:  74; 6HR PCP: TRACE;

$$

ARZ022-023-033-042-044-270100-
CENTRAL ARKANSAS

CITY           SKY/WX    TMP DP  RH WIND       PRES   REMARKS
LITTLE ROCK    PTCLDY    69  53  56 NE7       30.09R
6HR MIN TEMP:  69; 6HR MAX TEMP:  77;

N LITTLE ROCK    N/A     68  57  68 CALM      30.07R
6HR MIN TEMP:  68; 6HR MAX TEMP:  73;

JACKSONVILLE   CLEAR     70  58  65 CALM      30.08S
6HR MIN TEMP:  70; 6HR MAX TEMP:  75;

SEARCY         CLEAR     66  58  75 CALM      30.10S
6HR MIN TEMP:  66; 6HR MAX TEMP:  75; 6HR PCP: TRACE;

HOT SPRINGS    MOCLDY    71  53  52 N5        30.10R
6HR MIN TEMP:  71; 6HR MAX TEMP:  74;

RUSSELLVILLE   CLEAR     66  58  75 CALM      30.10R
6HR MIN TEMP:  66; 6HR MAX TEMP:  75;

$$

ARZ036-270100-
EAST ARKANSAS

CITY           SKY/WX    TMP DP  RH WIND       PRES   REMARKS
WEST MEMPHIS   CLEAR     68  50  52 NE7       30.07R
6HR MIN TEMP:  68; 6HR MAX TEMP:  76;

$$

ARZ050-053-066-070-073-270100-
SOUTHWEST ARKANSAS

CITY           SKY/WX    TMP DP  RH WIND       PRES   REMARKS
ARKADELPHIA    CLOUDY    69  57  65 CALM      30.10R
6HR MIN TEMP:  69; 6HR MAX TEMP:  73;

TEXARKANA      CLOUDY    71  55  56 N7        30.09R
6HR MIN TEMP:  71; 6HR MAX TEMP:  78;

EL DORADO      CLOUDY    70  61  73 N9        30.06R
6HR MIN TEMP:  70; 6HR MAX TEMP:  81;

DE QUEEN       CLOUDY    68  57  68 CALM      30.09R
6HR MIN TEMP:  68; 6HR MAX TEMP:  73;

$$

ARZ056-057-069-270100-
SOUTHEAST ARKANSAS

CITY           SKY/WX    TMP DP  RH WIND       PRES   REMARKS
PINE BLUFF     CLEAR     70  53  54 N9        30.08R
6HR MIN TEMP:  70; 6HR MAX TEMP:  75;

STUTTGART      CLEAR     66  52  59 N9        30.09R
6HR MIN TEMP:  66; 6HR MAX TEMP:  75;

MONTICELLO     CLEAR     72  56  57 N6        30.06R
6HR MIN TEMP:  72; 6HR MAX TEMP:  81;


$$





USA.gov is the U.S. government's official web portal to all federal, state and local government web resources and services.